Regional Weather Roundup
Issued by NWS

Home | Current Version | Previous Version | Text Only | Print | Product List | Glossary Off
Versions: 1 2 3 4 5 6 7 8 9 10 11 12 13 14 15 16 17 18 19 20 21 22 23 24 25 26 27 28 29 30 31 32 33 34 35 36 37 38 39 40 41 42 43 44 45 46 47 48 49 50

127
ASUS43 KLSX 231307
RWRMO

WEATHER SUMMARY FOR MISSOURI
NATIONAL WEATHER SERVICE SPRINGFIELD MO
800 AM CDT WED MAY 23 2018

NOTE: "FAIR" INDICATES FEW OR NO CLOUDS BELOW 12,000 FEET WITH NO
       SIGNIFICANT WEATHER AND/OR OBSTRUCTIONS TO VISIBILITY.
       CURRENT SKY AND/OR WEATHER CONDITIONS ARE NOT AVAILABLE FOR
       CHILLICOTHE AND FARMINGTON.

MOZ001>031-035>038-043-044-053-054-231400-
...NORTHERN AND WESTERN MISSOURI...

CITY           SKY/WX    TMP DP  RH WIND       PRES   REMARKS
KANSAS CTY INT MOSUNNY   72  65  78 S5        30.10R
KANSAS C DTWN  SUNNY     73  63  70 E3        30.08R
LEE`S SUMMIT   SUNNY     72  67  84 S5        30.11R
ST JOSEPH      SUNNY     72  65  78 SE6       30.09R
CHILLICOTHE      N/A     72  64  76 SE6       30.12R
KIRKSVILLE     SUNNY     70  64  81 SE7       30.15R

$$
MOZ066>068-077>081-088>096-101>105-231400-
...SOUTHWEST MISSOURI...

CITY           SKY/WX    TMP DP  RH WIND       PRES   REMARKS
SPRINGFIELD    SUNNY     73  67  81 SE7       30.12R
JOPLIN         SUNNY     72  67  84 S5        30.10R
BRANSON        PTSUNNY   68  68 100 CALM      30.14R FOG

$$
MOZ032>034-039>042-045>050-055>058-069>072-231400-
...CENTRAL MISSOURI...

CITY           SKY/WX    TMP DP  RH WIND       PRES   REMARKS
COLUMBIA       SUNNY     71  63  75 SE9       30.13R
JEFFERSON CITY SUNNY     71  65  81 SE6       30.12R
ROLLA          SUNNY     70  62  76 SE10      30.14R
SEDALIA        SUNNY     72  67  84 SE6       30.12R
WHITEMAN AFB   MOSUNNY   71  65  80 SE3       30.07R
WARRENSBURG    SUNNY     70  63  78 S3        30.10R
OSAGE BEACH    SUNNY     68  65  90 VRB3      30.13R

$$
MOZ051-052-059>065-231400-
...EAST CENTRAL MISSOURI...

CITY           SKY/WX    TMP DP  RH WIND       PRES   REMARKS
ST LOUIS INTL  MOSUNNY   71  62  73 E8        30.15R
SPIRIT OF STL  SUNNY     71  64  78 VRB3      30.13R
ST CHARLES     SUNNY     70  63  78 E7        30.14R

$$
MOZ072>076-082>087-097>100-106>115-231400-
...SOUTH CENTRAL AND SOUTHEAST MISSOURI...

CITY           SKY/WX    TMP DP  RH WIND       PRES   REMARKS
CAPE GIRARDEAU FAIR      73  65  75 NE7       30.11R
FARMINGTON     SUNNY     70  64  81 E5        30.16R
POPLAR BLUFF   FAIR      74  68  81 NE7       30.10R
WEST PLAINS    CLOUDY    72  69  90 E5        30.15R

$$




USA.gov is the U.S. government's official web portal to all federal, state and local government web resources and services.